User: anonymous   Login
Location: NJAA Observatory
(40.6819°N, 74.8979°W)
Time: 02:45:16
(UTC-04:00)
Language:

S-56A Canister/Altair - Orbit

View from above orbital plane
View from above orbital plane
View from above satellite
View from above satellite

Ground track
Ground track

The orbit data is extracted from the following two-line orbital elements,

1 00082U 61004B   18142.33631887 -.00000022  00000-0  31793-4 0  9998
2 00082  38.8537 121.7371 1174912  29.7283 336.5225 12.25947996714882
Epoch (UTC): 22 May 2018 08:04:17
Eccentricity: 0.1174912
inclination: 38.8537°
perigee height: 633 km
apogee height: 2500 km
right ascension of ascending node: 121.7371°
argument of perigee: 29.7283°
revolutions per day: 12.25947996
mean anomaly at epoch: 336.5225°
orbit number at epoch: 71488

The dashed part of the orbit path shows where the satellite is in the earth's shadow,  

DLR